Change the Weather History Date:

Thursday, February 28, 2013

  Actual Average Record
Temperature  
Mean Temperature 51 °F 48 °F  
Max Temperature 56 °F 55 °F 73 °F (1954)
Min Temperature 46 °F 41 °F 24 °F (1906)
Degree Days  
Heating Degree Days 14 17  
Month to date heating degree days 471 511  
Since 1 July heating degree days 1732 1924  
Cooling Degree Days 0 0  
Month to date cooling degree days 0 0  
Year to date cooling degree days 0 0  
Moisture  
Dew Point 38 °F    
Average Humidity 72    
Maximum Humidity 93    
Minimum Humidity 50    
Precipitation  
Precipitation 0.00 in 0.14 in 2.11 in (2009)
Month to date precipitation 7.56 4.02  
Year to date precipitation 9.73 9.26  
Snow  
Snow 0.00 in - - ()
Month to date snowfall 0.0  
Since 1 July snowfall 0.0  
Snow Depth 0.00 in    
Sea Level Pressure  
Sea Level Pressure 29.74 in    
Wind  
Wind Speed 11 mph (WNW)    
Max Wind Speed 16 mph    
Max Gust Speed 25 mph    
Visibility 10 miles    
Events      
T = Trace of Precipitation, MM = Missing Value Source: NWS Daily Summary

Daily Weather History Graph

Daily Weather History Graph

Search for Another Location

Airport or City:

Trip Planner

Search our weather history database for the weather conditions in past years. The results will help you decide how hot, cold, wet, or windy it might be!

Date:

Astronomy

Feb. 28, 2013 Rise Set
Actual Time 6:33 AM EST 5:57 PM EST
Civil Twilight 6:07 AM EST 6:22 PM EST
Nautical Twilight 5:38 AM EST 6:52 PM EST
Astronomical Twilight 5:08 AM EST 7:21 PM EST
Moon 9:11 PM EST (2/28) 7:49 AM EST (2/28)
Length of Visible Light 12h 15m
Length of Day
11h 24m
Waning Gibbous, 91% of the Moon is Illuminated
Feb 28
Waning Gibbous
Mar 4
Last Quarter
Mar 11
New
Mar 19
First Quarter
Mar 27
Full

Hourly Weather History & Observations

Time (EST) Temp. Windchill Dew Point Humidity Pressure Visibility Wind Dir Wind Speed Gust Speed Precip Events Conditions
12:51 AM 48.9 °F - 46.0 °F 90% 29.74 in 5.0 mi WSW 8.1 mph - N/A   Clear
1:51 AM 48.9 °F - 44.1 °F 83% 29.73 in 7.0 mi WSW 8.1 mph - N/A   Clear
2:51 AM 48.9 °F - 45.0 °F 86% 29.71 in 7.0 mi WSW 8.1 mph - N/A   Clear
3:51 AM 50.0 °F - 44.1 °F 80% 29.70 in 8.0 mi West 10.4 mph 20.7 mph N/A   Clear
4:51 AM 48.9 °F - 41.0 °F 74% 29.71 in 10.0 mi West 10.4 mph 19.6 mph N/A   Clear
5:51 AM 48.9 °F - 42.1 °F 77% 29.71 in 10.0 mi West 11.5 mph 20.7 mph N/A   Clear
6:51 AM 48.0 °F - 42.1 °F 80% 29.73 in 10.0 mi West 12.7 mph 20.7 mph N/A   Clear
7:51 AM 48.9 °F - 42.1 °F 77% 29.74 in 10.0 mi West 12.7 mph 19.6 mph N/A   Clear
8:51 AM 50.0 °F - 42.1 °F 74% 29.75 in 10.0 mi West 10.4 mph 17.3 mph N/A   Clear
9:51 AM 51.1 °F - 42.1 °F 71% 29.74 in 10.0 mi West 10.4 mph 16.1 mph N/A   Clear
10:51 AM 52.0 °F - 43.0 °F 71% 29.74 in 10.0 mi West 11.5 mph - N/A   Clear
11:51 AM 53.1 °F - 42.1 °F 66% 29.72 in 10.0 mi West 9.2 mph - N/A   Clear
12:51 PM 53.1 °F - 41.0 °F 64% 29.71 in 10.0 mi West 10.4 mph 18.4 mph N/A   Clear
1:51 PM 55.0 °F - 37.0 °F 51% 29.68 in 10.0 mi West 10.4 mph 17.3 mph N/A   Mostly Cloudy
2:51 PM 52.0 °F - 39.9 °F 63% 29.68 in 10.0 mi WNW 8.1 mph - N/A   Overcast
3:51 PM 51.1 °F - 33.1 °F 50% 29.70 in 10.0 mi NW 10.4 mph 19.6 mph N/A   Overcast
4:51 PM 50.0 °F - 33.1 °F 52% 29.71 in 10.0 mi NW 10.4 mph 17.3 mph N/A   Overcast
5:51 PM 48.9 °F - 30.9 °F 50% 29.73 in 10.0 mi WNW 13.8 mph 20.7 mph N/A   Overcast
6:51 PM 48.0 °F - 33.1 °F 56% 29.76 in 10.0 mi NW 11.5 mph 20.7 mph N/A   Clear
7:51 PM 48.0 °F - 32.0 °F 54% 29.77 in 10.0 mi WNW 16.1 mph 23.0 mph N/A   Clear
8:51 PM 46.9 °F - 33.1 °F 59% 29.80 in 10.0 mi WNW 8.1 mph 18.4 mph N/A   Clear
9:51 PM 46.9 °F - 32.0 °F 56% 29.80 in 10.0 mi WNW 10.4 mph 20.7 mph N/A   Clear
10:51 PM 46.9 °F - 30.9 °F 54% 29.80 in 10.0 mi NW 12.7 mph 20.7 mph N/A   Clear
11:51 PM 46.0 °F 40.2 °F 30.9 °F 56% 29.79 in 10.0 mi WNW 12.7 mph 21.9 mph N/A   Clear